Temp
9 9 9 9 9 8 8 8 8 8 8 7 7 7 7 7 7 6 6 6 5 5 5 6 6 6 5 5 5 5 5 4 4 4 4 4 4 4 4 5 5 5 4 4 4 4 4 4 4 5 5 5 5 5 5 5 5 5 5 5 5 5 5 5 5 5 5 5 5 5 5 5 5 5
9 9 9 9 9 8 8 8 8 8 8 8 7 7 7 7 7 6 6 6 6 5 5 5 6 6 5 5 5 5 5 5 5 5 5 5 5 5 5 5 5 4 4 4 4 4 4 4 4 4 4 4 4 4 4 4 4 4 5 5 5 5 5 5 5 5 5 5 5 5 5 5 5 5
9 9 9 9 9 8 8 8 8 8 8 8 7 7 7 7 7 6 6 6 6 5 5 5 5 6 5 5 5 5 5 5 5 5 5 5 5 5 4 4 4 4 4 4 4 4 4 4 4 4 4 4 4 4 4 4 4 4 4 4 5 5 5 4 4 4 4 5 5 5 5 5 5 5
9 9 9 9 9 8 8 8 8 8 8 7 7 7 7 7 7 6 6 6 5 5 5 5 6 6 6 5 5 5 5 5 5 5 5 5 5 5 4 4 4 4 4 4 4 4 4 4 4 4 4 4 4 4 4 4 4 4 4 4 4 5 5 4 4 4 4 4 4 4 4 4 5 5
9 9 9 9 9 9 8 8 8 8 7 7 7 7 7 7 7 6 6 6 6 5 5 5 6 6 6 6 5 5 5 5 5 5 5 5 5 5 5 4 4 4 4 4 4 4 4 4 4 4 4 4 4 4 4 4 4 4 4 4 4 4 4 4 4 4 4 3 3 3 3 4 4 4
9 9 9 9 9 9 9 8 8 8 7 7 7 7 7 7 7 7 6 6 6 6 5 5 5 6 6 6 5 5 5 5 5 5 5 5 5 4 4 4 4 4 3 4 4 4 4 4 4 4 4 4 4 4 4 4 4 4 4 4 4 4 4 4 4 4 4 3 3 3 3 3 3 3
10 9 9 9 9 9 9 8 8 8 8 7 7 7 7 7 7 6 6 6 6 6 6 5 5 5 5 5 5 5 5 5 5 5 4 4 4 4 4 4 3 3 3 3 3 3 3 4 4 4 4 4 4 4 4 4 4 4 4 4 4 4 4 4 4 4 4 3 3 3 3 3 3 3
10 10 9 9 9 9 9 9 8 8 8 7 7 7 7 7 6 6 6 6 6 6 6 5 5 5 5 5 5 5 5 5 5 4 4 4 4 4 4 3 3 3 3 3 3 3 3 3 4 4 4 4 4 4 4 4 4 4 4 4 4 4 4 4 4 4 4 4 3 3 3 3 3 3
10 10 9 9 9 9 9 9 8 8 8 7 7 7 7 6 6 6 6 6 6 6 5 5 5 5 5 5 5 5 5 5 5 4 4 4 4 4 3 3 3 3 3 3 3 3 3 3 4 4 4 4 4 4 4 4 4 4 4 4 4 4 4 4 3 3 3 3 3 3 3 3 3 3
10 10 10 9 9 9 9 9 8 8 7 7 7 7 7 6 6 6 6 6 6 6 5 5 5 5 5 5 5 5 5 5 5 5 4 4 4 4 3 3 3 3 3 3 3 3 3 3 4 4 4 4 4 4 4 4 3 3 3 3 3 3 3 3 3 3 3 3 3 3 3 3 3 3
10 10 10 10 9 9 9 9 8 8 8 7 7 7 7 7 6 6 6 6 6 6 5 5 5 5 4 4 4 4 4 4 4 4 4 4 4 4 3 3 3 3 3 4 4 4 3 3 3 4 4 4 4 4 4 4 3 3 3 3 3 3 3 3 3 3 3 3 3 3 3 3 3 3
10 10 10 10 10 9 9 9 8 8 8 8 7 7 7 7 7 6 6 6 6 6 5 5 5 5 4 4 4 4 4 4 4 4 4 4 4 4 4 3 3 3 3 4 4 4 4 4 4 4 4 4 4 4 4 3 3 3 3 3 3 3 3 3 3 3 3 3 3 3 3 3 3 3
10 10 10 10 10 10 10 10 9 8 8 8 8 7 7 7 7 6 6 6 6 6 5 5 5 5 5 5 4 4 4 4 4 4 4 4 4 4 4 4 4 4 4 4 4 4 4 4 4 4 4 4 4 3 3 3 3 3 3 3 3 3 3 3 3 3 3 3 3 3 3 3 3 3
11 11 11 10 10 10 10 10 10 9 9 9 8 8 7 7 7 6 6 6 6 6 5 5 5 5 5 5 5 5 5 4 4 4 4 4 4 4 4 4 4 4 4 4 4 4 4 3 4 3 3 4 3 3 3 3 3 3 3 3 3 3 3 3 3 3 3 3 3 3 3 3 3 2
11 11 11 10 10 11 11 11 11 10 10 9 9 8 7 7 6 6 6 6 6 6 6 5 5 5 5 5 5 5 5 5 4 4 4 4 4 4 4 4 4 4 4 4 4 4 3 3 3 3 3 3 3 3 3 3 3 3 3 3 3 3 3 2 2 2 2 2 2 2 2 2 2 2
11 11 11 11 11 11 11 11 11 11 10 10 9 8 8 7 7 7 6 6 6 6 6 5 5 5 5 5 5 5 5 5 4 4 4 4 4 4 3 4 4 4 4 3 3 3 3 3 3 3 3 3 3 3 3 2 2 2 2 2 2 2 2 2 2 2 2 2 2 2 2 2 2 2
11 11 11 11 11 11 11 11 11 10 10 10 9 9 8 8 8 7 7 6 6 6 5 5 5 5 5 5 5 5 5 5 4 4 4 4 3 3 3 4 3 3 3 3 3 3 3 3 3 3 3 3 3 2 2 2 2 2 2 2 2 2 2 2 1 1 1 1 1 1 1 2 2 2
11 11 11 11 11 11 11 11 11 10 10 10 10 10 9 9 8 8 7 7 6 6 5 5 5 5 5 5 5 5 5 5 4 4 4 3 3 3 3 3 3 3 3 3 3 3 3 3 3 3 3 3 2 2 2 2 2 2 2 2 2 2 1 1 1 1 1 1 1 1 1 1 2 2
12 12 12 12 11 11 11 11 11 11 10 10 10 10 10 9 9 8 8 7 7 6 5 5 5 5 5 5 5 5 5 4 4 4 3 3 3 3 3 3 3 3 3 3 3 3 3 3 3 3 2 2 2 2 2 2 2 2 2 2 2 2 1 1 2 2 2 2 2 2 2 2 2 2
12 12 12 12 12 11 11 11 11 11 10 10 10 10 10 10 9 9 8 7 7 6 5 5 5 5 5 5 5 5 5 4 4 4 3 3 3 3 3 3 3 3 3 3 3 3 3 3 3 3 2 2 2 2 2 2 2 2 2 2 2 2 2 2 2 2 2 2 2 2 2 2 2 2
12 12 12 11 12 12 12 11 11 10 10 10 10 10 10 10 10 9 8 8 7 6 5 5 5 5 5 5 5 5 4 4 4 3 3 3 3 3 3 3 3 3 3 3 3 3 3 3 3 3 3 2 2 2 2 2 2 2 2 2 2 2 2 2 2 1 2 2 2 2 2 2 2 2
12 12 12 11 12 12 11 11 11 10 10 10 10 10 10 10 10 9 8 8 7 6 6 5 6 5 5 5 5 4 4 4 4 3 3 3 3 3 3 3 3 3 3 3 3 3 3 3 3 3 3 3 3 2 2 2 2 2 2 2 2 2 2 2 2 1 1 1 2 2 2 2 2 2
12 12 12 12 12 11 11 11 11 10 10 10 10 10 10 10 10 9 8 8 7 6 6 6 6 5 5 5 4 4 4 4 4 3 3 3 3 3 3 3 3 3 3 3 3 3 3 3 3 3 3 3 3 3 2 2 2 2 2 2 2 2 2 2 2 1 1 1 2 2 2 2 2 2
12 12 12 11 12 11 11 11 11 11 10 10 10 10 10 10 9 9 8 7 7 6 6 6 6 5 5 5 4 4 4 4 4 3 3 3 3 3 3 3 3 3 3 3 3 3 3 3 3 3 3 3 3 3 2 2 2 2 2 2 2 2 2 2 2 2 1 1 1 1 1 1 1 2
12 12 12 11 11 11 11 10 10 10 10 10 10 10 10 9 9 8 8 7 7 7 6 6 6 5 5 4 4 4 4 4 4 3 3 3 3 3 3 3 3 3 3 3 3 3 4 4 3 3 3 3 3 3 2 2 2 2 2 2 2 2 2 2 2 2 1 1 1 1 1 1 1 1
12 12 12 11 11 11 10 10 10 10 10 10 10 10 9 9 8 8 8 7 7 7 7 6 6 5 5 4 4 4 4 4 3 3 3 3 3 3 3 3 3 3 3 3 3 3 3 3 3 3 3 3 3 3 2 2 2 2 2 2 2 2 2 2 2 2 1 1 1 1 1 1 1 1
12 12 11 11 10 10 10 9 9 9 10 10 9 9 9 9 8 8 8 7 7 7 7 6 6 5 4 4 4 3 3 3 3 3 3 4 4 3 3 3 3 3 3 3 3 3 3 3 3 3 3 3 3 3 2 2 2 2 2 2 2 2 2 2 2 1 1 1 1 1 1 1 1 0
12 11 11 10 10 10 9 9 9 9 9 9 9 9 9 9 8 8 8 7 7 7 6 6 5 5 4 4 3 3 3 3 3 3 4 4 4 3 3 3 3 3 3 3 3 3 3 3 3 3 3 3 3 2 2 3 3 2 2 2 2 2 1 1 1 1 1 1 1 1 1 1 0 0
11 11 10 10 9 9 9 9 9 9 9 9 9 9 9 8 8 8 7 7 7 6 6 5 5 4 4 4 3 3 3 3 3 4 4 4 4 3 3 3 3 3 3 3 3 3 3 3 3 3 3 2 2 2 2 2 2 2 2 2 2 1 1 1 1 1 0 0 1 1 0 0 1 1
10 10 10 9 9 9 10 9 9 9 9 9 9 9 9 8 8 7 7 7 6 6 5 5 5 4 4 3 3 3 3 3 4 4 4 4 4 3 3 3 3 3 3 3 3 3 3 3 3 3 3 2 2 2 2 2 2 2 2 2 2 1 1 1 0 0 -0 -0 0 0 0 0 0 0
10 10 10 9 10 10 9 9 8 8 8 8 8 9 8 8 7 7 7 7 6 6 5 5 5 4 4 3 3 3 3 3 4 4 4 4 3 3 3 3 2 2 3 3 3 3 3 3 3 3 3 2 2 2 2 2 2 2 1 1 1 1 1 0 0 -0 -1 -1 -0 -0 -0 -0 -0 -0
10 9 9 10 10 9 9 8 8 8 8 8 8 8 8 7 7 7 7 6 6 5 5 5 4 4 4 4 3 3 3 4 4 4 4 4 3 3 3 3 2 2 2 3 3 3 3 3 3 3 2 2 2 2 2 2 1 1 1 1 1 0 0 -0 -0 -0 -1 -1 -1 -0 -0 -0 -0 -0
9 9 9 9 10 9 9 8 8 7 7 8 8 8 7 7 7 6 6 6 5 5 5 5 4 4 4 4 3 3 4 4 4 4 4 4 3 3 3 2 2 2 2 2 3 3 3 3 3 2 2 2 2 2 2 2 1 1 1 0 0 -0 -0 -1 -1 -1 -1 -1 -1 -0 -0 -0 -0 -0
8 9 8 8 8 9 8 8 7 6 6 7 7 7 6 6 6 6 6 5 5 5 5 4 4 4 4 4 3 4 4 5 4 4 4 4 3 3 3 2 2 2 2 2 2 3 3 2 2 2 2 2 2 1 1 1 1 1 0 -0 -0 -0 -0 -1 -1 -1 -1 -1 -1 -1 -0 0 -0 -0
9 9 9 8 8 9 8 7 6 5 5 6 6 6 6 6 6 6 5 5 5 5 4 4 4 4 4 4 3 4 4 4 4 4 4 4 3 3 3 2 2 2 2 2 3 3 3 2 2 2 2 2 2 1 1 1 0 0 0 -0 -0 -0 -1 -1 -1 -1 -1 -1 -1 -1 -0 0 -0 -0
9 9 9 9 9 9 8 7 5 5 5 5 5 5 6 6 6 5 5 5 5 4 4 4 4 4 4 3 4 4 4 4 4 4 4 4 3 3 3 3 2 2 2 2 2 3 2 2 2 2 2 1 1 1 1 0 -0 -0 -0 -0 -0 -0 -1 -1 -1 -1 -1 -1 -1 -1 -0 -0 0 0
8 8 8 8 8 8 7 6 4 4 4 4 4 5 5 5 5 5 5 4 4 4 4 3 3 3 3 3 4 4 4 4 4 4 4 4 3 3 3 3 3 3 2 2 2 2 2 2 2 2 1 1 1 1 1 0 -0 -0 -0 -0 -0 -0 -1 -1 -1 -1 -1 -1 -1 -1 -1 -0 0 0
8 8 7 7 7 7 6 5 4 3 3 4 4 4 5 5 5 5 4 4 4 4 3 3 3 3 3 3 4 4 4 4 4 4 4 3 3 3 3 3 3 3 3 2 2 2 2 2 2 2 1 1 1 1 1 0 -0 -0 -1 -1 -0 -1 -1 -1 -1 -1 -1 -1 -1 -1 -1 -0 -0 0
8 7 6 6 6 6 5 4 4 3 3 3 4 4 5 5 4 4 4 4 4 3 3 3 3 3 3 3 4 4 4 4 4 4 4 3 3 3 3 3 3 3 3 2 2 2 2 2 2 2 1 1 1 1 0 0 -0 -0 -1 -1 -1 -1 -1 -1 -1 -1 -1 -1 -1 -1 -1 -0 -0 -0
7 6 6 6 6 5 4 4 3 3 3 3 3 4 4 4 4 4 4 3 3 3 3 3 3 3 3 3 4 4 4 4 4 4 3 3 3 3 3 3 3 3 3 2 2 2 2 2 2 2 1 1 1 0 0 -0 -0 -0 -0 -1 -1 -1 -1 -1 -2 -2 -1 -1 -1 -1 -1 -1 -0 -0
6 6 6 5 5 4 4 3 3 2 2 3 3 4 4 4 4 3 3 3 3 3 3 3 3 3 3 3 4 4 4 4 4 4 3 3 3 3 3 3 3 3 3 2 2 2 1 2 2 1 1 1 1 0 0 -0 -0 -0 -1 -1 -1 -1 -1 -1 -2 -2 -2 -2 -1 -1 -1 -1 -1 -1
6 6 6 5 5 4 3 3 2 2 2 3 3 4 4 3 3 3 3 3 3 3 3 3 3 3 3 3 3 4 3 3 4 4 4 3 3 3 3 3 3 3 3 2 2 2 2 2 2 1 1 1 0 0 -0 -0 -1 -1 -1 -1 -1 -1 -1 -1 -2 -2 -2 -2 -2 -2 -2 -1 -1 -1
6 5 5 5 4 4 3 3 2 2 2 3 3 3 3 3 3 3 3 3 3 3 3 3 3 3 3 3 3 3 3 3 4 4 4 3 3 3 3 3 3 3 3 3 2 2 2 2 1 1 1 1 0 0 -0 -1 -1 -1 -1 -1 -1 -1 -1 -1 -2 -2 -2 -2 -2 -2 -2 -2 -2 -2
6 5 5 4 4 4 3 3 2 2 3 3 3 3 3 3 3 3 3 3 2 3 3 3 3 3 3 3 3 3 3 4 4 4 4 3 3 3 3 3 3 3 3 3 2 2 2 1 1 1 1 1 0 0 -0 -1 -1 -1 -1 -1 -1 -1 -1 -1 -1 -2 -2 -2 -2 -2 -2 -2 -2 -2
5 5 4 4 3 3 3 3 3 3 3 3 3 3 3 3 3 2 2 2 2 3 3 3 2 2 2 3 3 3 3 4 4 4 4 3 3 3 3 3 3 3 3 3 2 2 2 1 1 1 1 1 0 0 -0 -1 -1 -1 -1 -1 -1 -1 -1 -1 -1 -1 -2 -2 -2 -2 -2 -2 -2 -1
Height
3219 3219 3219 3218 3218 3217 3217 3216 3216 3215 3215 3214 3214 3213 3212 3212 3211 3210 3210 3209 3209 3207 3207 3206 3206 3206 3205 3205 3205 3204 3204 3204 3203 3203 3203 3203 3203 3203 3203 3203 3202 3202 3201 3201 3200 3200 3199 3198 3198 3197 3196 3195 3194 3193 3192 3192 3191 3190 3189 3189 3188 3187 3187 3186 3185 3184 3184 3183 3183 3183 3182 3182 3182 3182
3218 3218 3218 3217 3217 3216 3216 3215 3215 3214 3214 3213 3213 3212 3211 3211 3210 3210 3209 3209 3208 3207 3205 3205 3204 3204 3204 3204 3203 3203 3202 3202 3202 3202 3202 3202 3202 3202 3201 3201 3200 3199 3198 3198 3197 3196 3196 3195 3194 3193 3192 3191 3190 3190 3189 3188 3187 3186 3186 3185 3184 3183 3183 3182 3181 3181 3181 3180 3180 3180 3180 3179 3179 3179
3217 3217 3217 3216 3216 3215 3214 3214 3214 3213 3213 3212 3212 3211 3210 3210 3209 3209 3208 3208 3207 3205 3204 3203 3203 3203 3203 3202 3201 3201 3201 3201 3201 3201 3200 3200 3200 3200 3199 3198 3197 3196 3196 3195 3194 3193 3192 3192 3191 3190 3189 3188 3187 3186 3185 3184 3183 3182 3181 3181 3180 3179 3178 3178 3177 3177 3177 3177 3177 3177 3177 3177 3177 3177
3216 3215 3215 3215 3215 3214 3213 3213 3212 3212 3212 3211 3210 3210 3209 3208 3208 3207 3207 3206 3205 3204 3203 3202 3201 3201 3201 3201 3200 3200 3199 3199 3199 3199 3198 3198 3197 3197 3197 3196 3195 3194 3193 3192 3191 3190 3189 3188 3187 3186 3185 3184 3183 3182 3181 3180 3179 3178 3177 3177 3176 3175 3174 3173 3173 3173 3172 3172 3172 3173 3173 3173 3173 3174
3214 3214 3214 3214 3213 3213 3212 3211 3210 3210 3210 3210 3209 3209 3208 3207 3206 3206 3205 3204 3204 3203 3201 3201 3200 3200 3199 3199 3199 3198 3198 3197 3197 3196 3196 3195 3194 3194 3194 3193 3192 3191 3190 3189 3188 3187 3187 3186 3185 3183 3182 3181 3179 3178 3177 3176 3175 3174 3173 3173 3172 3171 3170 3169 3169 3168 3168 3168 3168 3168 3169 3169 3169 3170
3212 3212 3212 3212 3212 3211 3211 3210 3209 3208 3208 3208 3208 3207 3207 3206 3205 3205 3204 3203 3203 3202 3201 3200 3199 3198 3198 3198 3197 3197 3196 3196 3195 3194 3193 3192 3192 3192 3192 3191 3190 3189 3188 3187 3186 3185 3184 3183 3182 3180 3179 3177 3176 3174 3173 3172 3171 3170 3169 3168 3168 3167 3166 3165 3165 3164 3164 3163 3163 3163 3164 3164 3165 3165
3209 3210 3210 3210 3209 3209 3209 3208 3207 3207 3206 3206 3206 3206 3206 3205 3204 3204 3203 3203 3202 3202 3201 3199 3198 3197 3196 3196 3196 3195 3195 3194 3193 3192 3191 3190 3189 3189 3189 3188 3187 3186 3185 3184 3183 3182 3181 3180 3178 3177 3175 3173 3172 3170 3169 3168 3167 3166 3165 3164 3163 3162 3162 3161 3160 3160 3159 3159 3159 3159 3159 3159 3160 3160
3207 3207 3208 3207 3207 3206 3206 3206 3205 3205 3204 3204 3204 3204 3204 3203 3203 3202 3201 3201 3201 3200 3200 3198 3197 3196 3195 3194 3194 3193 3193 3192 3191 3189 3188 3188 3188 3187 3186 3185 3184 3183 3182 3181 3179 3178 3177 3176 3174 3172 3171 3169 3168 3166 3165 3164 3163 3162 3160 3159 3158 3158 3157 3156 3156 3155 3155 3154 3154 3154 3154 3154 3154 3154
3204 3205 3205 3204 3204 3204 3203 3203 3203 3202 3202 3202 3202 3202 3202 3201 3201 3200 3200 3199 3198 3198 3197 3197 3196 3194 3193 3193 3192 3191 3191 3190 3189 3188 3187 3187 3186 3185 3183 3182 3181 3180 3179 3177 3176 3174 3173 3171 3170 3168 3166 3165 3163 3162 3160 3159 3158 3157 3155 3155 3154 3153 3152 3151 3150 3150 3150 3149 3149 3149 3149 3149 3149 3149
3202 3202 3202 3201 3201 3201 3201 3201 3200 3200 3200 3199 3200 3200 3199 3199 3198 3198 3197 3197 3196 3195 3195 3194 3194 3193 3191 3190 3190 3189 3188 3188 3187 3187 3186 3186 3185 3183 3181 3179 3178 3177 3176 3175 3173 3171 3169 3168 3166 3164 3163 3161 3159 3157 3156 3155 3154 3152 3151 3150 3149 3148 3147 3147 3145 3145 3144 3144 3144 3144 3144 3144 3144 3144
3199 3199 3199 3199 3199 3199 3199 3198 3198 3197 3197 3197 3197 3197 3196 3196 3196 3195 3195 3194 3193 3193 3192 3191 3191 3190 3189 3188 3187 3186 3185 3185 3185 3185 3185 3184 3183 3181 3179 3177 3176 3174 3173 3172 3170 3168 3166 3164 3163 3161 3159 3157 3155 3153 3151 3150 3149 3147 3145 3144 3143 3142 3142 3141 3141 3140 3139 3139 3139 3139 3139 3139 3139 3139
3196 3196 3196 3196 3196 3197 3196 3195 3195 3194 3194 3193 3193 3193 3193 3193 3192 3192 3192 3191 3191 3190 3189 3188 3188 3187 3186 3185 3185 3184 3183 3182 3182 3182 3182 3182 3180 3179 3177 3175 3173 3171 3170 3169 3167 3165 3162 3160 3159 3157 3155 3154 3151 3149 3147 3146 3144 3142 3140 3139 3138 3136 3136 3135 3135 3135 3134 3134 3133 3133 3133 3133 3133 3134
3193 3193 3193 3193 3194 3194 3193 3192 3191 3190 3190 3190 3189 3189 3189 3189 3189 3188 3188 3188 3188 3187 3186 3185 3185 3184 3183 3183 3182 3181 3180 3180 3179 3178 3178 3178 3177 3176 3174 3172 3170 3168 3166 3165 3164 3162 3160 3157 3155 3153 3152 3150 3147 3145 3144 3142 3140 3138 3136 3134 3133 3131 3130 3130 3129 3129 3129 3129 3128 3128 3127 3128 3128 3128
3190 3190 3190 3190 3191 3190 3190 3189 3188 3187 3186 3186 3186 3186 3185 3185 3185 3185 3185 3184 3184 3184 3183 3183 3182 3181 3181 3180 3179 3179 3177 3176 3176 3175 3175 3174 3173 3172 3171 3169 3167 3165 3163 3161 3160 3159 3157 3154 3152 3150 3148 3146 3143 3141 3140 3138 3136 3134 3132 3130 3128 3127 3126 3125 3125 3124 3123 3123 3123 3123 3123 3122 3123 3123
3186 3186 3186 3187 3187 3187 3187 3187 3186 3185 3184 3183 3183 3182 3182 3181 3181 3181 3181 3181 3181 3180 3180 3180 3180 3179 3178 3177 3177 3176 3175 3174 3173 3172 3172 3171 3170 3168 3167 3165 3163 3161 3160 3157 3155 3155 3154 3151 3148 3146 3145 3142 3140 3138 3135 3133 3131 3130 3128 3126 3125 3123 3122 3121 3120 3120 3119 3118 3118 3118 3118 3118 3118 3118
3182 3182 3183 3183 3183 3184 3185 3185 3184 3183 3182 3181 3180 3179 3179 3178 3177 3177 3178 3178 3178 3177 3177 3177 3177 3176 3176 3175 3174 3173 3172 3171 3170 3170 3169 3167 3166 3165 3163 3161 3160 3157 3155 3153 3151 3151 3150 3146 3143 3142 3140 3138 3136 3134 3131 3129 3127 3126 3124 3123 3121 3120 3118 3117 3116 3115 3114 3114 3113 3113 3113 3113 3113 3113
3178 3178 3179 3179 3180 3181 3182 3182 3181 3180 3179 3178 3177 3176 3175 3174 3174 3174 3174 3174 3174 3174 3174 3174 3173 3173 3173 3172 3171 3170 3170 3169 3168 3167 3166 3164 3163 3162 3160 3158 3156 3154 3151 3148 3146 3146 3145 3141 3139 3138 3136 3134 3133 3131 3128 3126 3124 3122 3120 3119 3118 3116 3115 3113 3112 3111 3110 3110 3109 3109 3109 3109 3109 3109
3174 3174 3175 3176 3176 3178 3179 3178 3177 3177 3176 3175 3173 3172 3171 3171 3170 3170 3170 3170 3170 3170 3171 3170 3170 3170 3169 3169 3168 3168 3167 3166 3165 3164 3162 3161 3159 3158 3157 3155 3153 3151 3148 3144 3142 3142 3140 3137 3135 3134 3132 3131 3129 3127 3125 3123 3121 3118 3117 3115 3114 3113 3111 3110 3109 3107 3107 3106 3106 3105 3105 3105 3105 3105
3170 3170 3171 3172 3173 3174 3174 3174 3173 3173 3172 3171 3170 3169 3168 3167 3167 3166 3166 3166 3166 3167 3167 3167 3167 3166 3166 3165 3165 3165 3164 3163 3162 3160 3159 3157 3156 3155 3154 3152 3150 3147 3144 3141 3139 3138 3137 3134 3132 3131 3129 3127 3125 3123 3121 3119 3118 3116 3114 3112 3110 3109 3108 3106 3105 3104 3104 3103 3102 3102 3101 3101 3100 3100
3165 3166 3167 3168 3169 3169 3169 3169 3169 3169 3168 3167 3166 3165 3164 3163 3163 3162 3162 3162 3162 3163 3163 3163 3163 3163 3163 3162 3162 3162 3161 3159 3158 3156 3155 3154 3152 3151 3150 3148 3147 3144 3141 3138 3136 3135 3133 3131 3129 3128 3126 3124 3121 3119 3117 3116 3114 3113 3111 3109 3107 3105 3104 3103 3102 3101 3101 3100 3099 3098 3097 3097 3096 3096
3161 3161 3161 3163 3164 3165 3165 3165 3164 3164 3163 3162 3162 3161 3160 3160 3159 3158 3158 3158 3159 3159 3160 3160 3160 3160 3160 3159 3159 3158 3157 3156 3154 3152 3151 3150 3149 3147 3145 3144 3143 3141 3137 3135 3134 3132 3130 3127 3125 3124 3123 3121 3118 3116 3114 3113 3111 3109 3108 3106 3104 3102 3100 3099 3098 3098 3097 3096 3095 3094 3093 3092 3092 3091
3155 3155 3156 3158 3159 3161 3161 3160 3160 3159 3158 3158 3158 3157 3157 3156 3155 3155 3155 3155 3155 3156 3157 3157 3157 3157 3157 3156 3156 3155 3153 3152 3150 3149 3148 3146 3145 3143 3141 3140 3139 3138 3135 3132 3131 3129 3127 3124 3122 3120 3119 3118 3116 3113 3111 3110 3108 3106 3104 3103 3101 3099 3097 3096 3095 3094 3093 3092 3091 3091 3090 3089 3088 3087
3149 3150 3151 3153 3155 3156 3156 3155 3154 3154 3154 3154 3155 3154 3153 3153 3152 3152 3152 3152 3152 3153 3153 3154 3154 3154 3154 3153 3152 3151 3150 3148 3147 3146 3144 3143 3141 3139 3138 3137 3135 3134 3132 3130 3128 3126 3124 3121 3119 3116 3115 3114 3114 3112 3110 3107 3105 3103 3101 3100 3098 3096 3094 3093 3091 3090 3089 3088 3087 3087 3086 3085 3084 3083
3143 3144 3146 3148 3149 3150 3151 3150 3150 3150 3150 3151 3150 3150 3149 3149 3149 3149 3149 3148 3149 3149 3150 3150 3151 3151 3150 3150 3149 3147 3146 3144 3143 3142 3141 3139 3138 3136 3135 3133 3132 3131 3128 3126 3125 3123 3121 3118 3116 3114 3112 3110 3110 3109 3108 3105 3102 3100 3098 3096 3094 3093 3091 3089 3088 3087 3086 3085 3084 3083 3082 3081 3080 3079
3137 3138 3140 3142 3144 3145 3146 3146 3146 3146 3146 3146 3146 3145 3145 3146 3146 3146 3145 3145 3145 3146 3147 3147 3148 3147 3147 3146 3145 3144 3142 3141 3140 3138 3137 3136 3134 3133 3132 3130 3129 3128 3125 3123 3121 3119 3117 3115 3113 3111 3109 3108 3106 3106 3105 3103 3100 3097 3095 3093 3091 3090 3088 3087 3086 3084 3083 3082 3081 3079 3078 3077 3076 3075
3131 3133 3134 3137 3140 3141 3142 3142 3141 3142 3142 3142 3141 3141 3140 3141 3142 3142 3142 3142 3142 3143 3144 3144 3144 3144 3144 3143 3141 3140 3139 3137 3136 3134 3133 3132 3131 3130 3129 3127 3125 3124 3122 3120 3118 3116 3114 3112 3110 3108 3106 3105 3104 3103 3101 3100 3098 3095 3093 3091 3089 3087 3085 3084 3083 3082 3081 3079 3078 3076 3075 3074 3073 3071
3126 3128 3130 3132 3135 3136 3137 3137 3137 3137 3137 3137 3136 3136 3136 3137 3138 3139 3139 3139 3139 3140 3141 3141 3141 3141 3140 3139 3138 3136 3135 3133 3132 3130 3130 3129 3128 3127 3126 3124 3122 3121 3119 3116 3114 3112 3111 3110 3108 3106 3103 3102 3101 3099 3098 3097 3095 3093 3090 3089 3087 3085 3083 3081 3080 3079 3077 3076 3074 3073 3072 3071 3070 3068
3120 3122 3125 3127 3129 3130 3131 3132 3133 3133 3132 3133 3132 3131 3132 3133 3134 3135 3136 3136 3136 3137 3138 3138 3138 3137 3137 3135 3134 3133 3131 3130 3128 3127 3127 3126 3125 3124 3123 3121 3119 3117 3115 3113 3111 3109 3108 3106 3105 3103 3101 3099 3098 3096 3095 3093 3092 3090 3087 3086 3084 3082 3080 3078 3076 3075 3073 3072 3071 3069 3068 3067 3066 3065
3115 3117 3119 3121 3123 3125 3126 3127 3128 3128 3128 3128 3127 3127 3127 3129 3131 3132 3132 3133 3133 3134 3134 3134 3134 3134 3133 3132 3131 3129 3128 3127 3125 3124 3124 3123 3122 3121 3120 3118 3117 3115 3112 3110 3108 3107 3105 3104 3102 3100 3099 3097 3095 3093 3091 3090 3089 3087 3084 3082 3081 3079 3077 3075 3073 3072 3070 3068 3067 3066 3065 3064 3062 3061
3109 3111 3114 3116 3117 3119 3120 3121 3123 3124 3124 3123 3123 3123 3124 3126 3127 3128 3129 3129 3130 3130 3130 3130 3130 3130 3129 3128 3127 3126 3125 3124 3122 3122 3121 3120 3119 3118 3117 3116 3114 3112 3110 3107 3106 3104 3103 3101 3100 3098 3096 3095 3093 3091 3089 3087 3086 3085 3082 3080 3078 3076 3074 3072 3070 3068 3067 3065 3064 3063 3061 3060 3058 3056
3101 3104 3106 3108 3111 3113 3115 3117 3119 3119 3118 3118 3118 3119 3120 3122 3124 3125 3125 3126 3126 3126 3126 3126 3127 3126 3126 3125 3124 3123 3122 3121 3120 3119 3118 3118 3117 3116 3115 3114 3112 3110 3108 3105 3104 3102 3101 3099 3097 3096 3094 3093 3091 3089 3087 3085 3083 3082 3080 3078 3075 3073 3071 3069 3067 3065 3063 3061 3059 3059 3058 3056 3054 3052
3095 3097 3097 3100 3104 3107 3110 3113 3113 3113 3113 3113 3114 3116 3117 3118 3120 3122 3122 3122 3122 3122 3122 3122 3123 3122 3122 3121 3121 3120 3119 3118 3117 3116 3116 3115 3115 3114 3113 3111 3110 3108 3106 3104 3102 3100 3099 3097 3096 3094 3092 3090 3088 3086 3085 3083 3081 3078 3077 3076 3073 3071 3069 3066 3064 3063 3060 3058 3055 3054 3054 3052 3051 3048
3088 3089 3090 3092 3096 3101 3105 3108 3109 3109 3109 3109 3111 3113 3114 3115 3117 3118 3118 3118 3118 3118 3118 3118 3118 3118 3118 3118 3117 3116 3115 3115 3114 3114 3113 3113 3112 3112 3110 3109 3107 3105 3103 3102 3100 3099 3097 3095 3094 3092 3090 3089 3086 3084 3082 3081 3079 3076 3074 3072 3070 3069 3067 3064 3062 3060 3058 3055 3052 3050 3049 3048 3046 3044
3083 3084 3084 3087 3090 3094 3098 3102 3105 3106 3106 3106 3108 3109 3111 3112 3114 3115 3115 3115 3114 3114 3114 3114 3114 3114 3114 3114 3113 3112 3112 3112 3111 3111 3110 3110 3110 3109 3108 3106 3104 3102 3101 3099 3098 3096 3095 3094 3092 3091 3089 3087 3085 3082 3079 3077 3076 3074 3071 3069 3068 3066 3064 3062 3059 3057 3054 3051 3048 3046 3044 3043 3042 3039
3077 3078 3080 3082 3084 3087 3090 3094 3098 3101 3103 3104 3105 3107 3108 3110 3111 3111 3111 3111 3111 3111 3111 3110 3110 3110 3110 3110 3109 3109 3109 3108 3108 3108 3108 3107 3107 3106 3105 3104 3102 3100 3098 3096 3095 3093 3092 3091 3090 3089 3088 3086 3084 3081 3078 3074 3073 3071 3069 3068 3066 3063 3061 3059 3057 3054 3051 3048 3045 3042 3039 3038 3037 3035
3070 3072 3075 3076 3078 3081 3083 3086 3090 3094 3099 3102 3103 3105 3106 3107 3108 3108 3108 3108 3108 3107 3107 3106 3106 3106 3106 3106 3105 3105 3106 3105 3105 3105 3105 3105 3104 3104 3103 3101 3099 3097 3095 3094 3092 3090 3089 3088 3088 3087 3086 3084 3082 3080 3077 3074 3071 3069 3067 3065 3063 3061 3058 3055 3053 3050 3048 3045 3042 3038 3035 3033 3032 3030
3065 3068 3070 3071 3072 3074 3077 3081 3084 3088 3093 3098 3100 3102 3104 3104 3105 3105 3104 3104 3104 3104 3103 3103 3102 3103 3103 3103 3102 3102 3103 3103 3102 3102 3102 3102 3102 3101 3100 3098 3096 3095 3093 3091 3089 3088 3087 3086 3085 3084 3083 3081 3079 3078 3076 3074 3071 3068 3065 3063 3061 3058 3055 3052 3049 3047 3044 3041 3038 3035 3031 3028 3026 3024
3060 3063 3065 3066 3067 3068 3071 3075 3080 3084 3089 3093 3096 3098 3100 3101 3101 3101 3101 3101 3101 3100 3100 3099 3099 3100 3100 3099 3099 3099 3100 3100 3099 3099 3099 3099 3099 3099 3097 3096 3094 3092 3090 3088 3086 3085 3084 3083 3082 3081 3079 3077 3076 3074 3073 3072 3070 3067 3064 3061 3058 3055 3052 3048 3045 3042 3040 3037 3034 3031 3028 3024 3020 3018
3055 3057 3059 3062 3063 3064 3066 3069 3074 3079 3084 3088 3092 3095 3096 3097 3097 3097 3098 3098 3097 3097 3096 3096 3096 3096 3097 3096 3096 3096 3096 3096 3096 3096 3096 3097 3096 3096 3095 3093 3091 3090 3087 3086 3084 3083 3082 3081 3079 3078 3076 3074 3072 3071 3069 3068 3067 3065 3062 3059 3056 3053 3049 3045 3041 3038 3035 3032 3029 3026 3023 3019 3016 3012
3049 3052 3055 3057 3059 3060 3063 3066 3070 3075 3079 3083 3088 3091 3092 3093 3093 3094 3094 3094 3093 3093 3093 3093 3093 3093 3093 3092 3092 3093 3093 3093 3093 3093 3093 3094 3094 3093 3092 3090 3089 3087 3085 3084 3082 3081 3079 3078 3077 3075 3074 3072 3070 3068 3066 3065 3063 3062 3059 3056 3053 3050 3047 3044 3039 3035 3031 3027 3024 3020 3017 3013 3009 3005
3045 3048 3051 3053 3055 3058 3061 3064 3067 3070 3075 3079 3083 3086 3088 3089 3089 3089 3090 3090 3090 3089 3089 3089 3089 3090 3089 3089 3089 3089 3090 3090 3090 3090 3091 3091 3091 3090 3088 3087 3086 3084 3083 3081 3080 3079 3077 3075 3074 3073 3071 3069 3067 3066 3064 3062 3060 3058 3057 3054 3051 3048 3045 3042 3039 3034 3028 3024 3020 3016 3012 3007 3003 3000
3042 3045 3046 3048 3052 3055 3058 3061 3064 3067 3071 3076 3080 3082 3084 3084 3085 3085 3085 3086 3086 3086 3085 3086 3086 3086 3085 3085 3085 3086 3086 3087 3087 3087 3088 3088 3087 3086 3085 3084 3083 3082 3080 3079 3078 3076 3074 3073 3072 3070 3069 3067 3065 3063 3062 3060 3057 3055 3054 3052 3049 3046 3042 3039 3036 3032 3027 3022 3018 3013 3009 3004 3000 2995
3039 3041 3044 3046 3049 3052 3055 3058 3061 3065 3069 3073 3076 3078 3079 3080 3080 3081 3081 3082 3082 3082 3082 3082 3082 3082 3081 3081 3081 3082 3083 3083 3083 3084 3084 3084 3084 3083 3082 3081 3080 3079 3077 3076 3075 3073 3071 3070 3069 3068 3067 3065 3063 3061 3059 3057 3055 3053 3051 3049 3047 3044 3040 3036 3033 3030 3026 3022 3017 3012 3007 3001 2995 2990
3036 3039 3042 3044 3047 3049 3052 3056 3059 3063 3067 3070 3073 3074 3075 3076 3076 3077 3077 3077 3077 3078 3078 3078 3078 3078 3077 3077 3078 3079 3079 3079 3080 3081 3081 3081 3081 3080 3079 3078 3077 3076 3074 3073 3072 3070 3069 3067 3066 3066 3064 3063 3061 3059 3057 3055 3053 3051 3049 3047 3044 3041 3038 3034 3030 3027 3024 3020 3015 3011 3006 3001 2995 2989
3033 3036 3039 3042 3044 3047 3051 3054 3057 3061 3064 3067 3069 3070 3071 3072 3072 3073 3073 3073 3074 3074 3074 3074 3074 3074 3073 3073 3074 3075 3075 3076 3077 3077 3078 3078 3077 3077 3076 3075 3074 3072 3071 3070 3069 3067 3066 3065 3064 3063 3062 3060 3058 3056 3055 3053 3051 3049 3047 3044 3042 3038 3035 3031 3028 3025 3022 3018 3014 3009 3004 2999 2994 2988
Wind_Speed
4 4 4 3 4 5 5 6 6 6 5 5 4 4 5 6 7 8 7 7 8 9 9 9 8 7 8 8 8 9 10 10 11 12 12 13 14 16 17 19 20 20 19 18 18 18 19 19 20 21 22 23 24 25 25 26 25 25 26 26 25 25 23 22 22 23 24 25 25 26 26 27 27 27
2 2 3 3 3 4 4 5 7 8 8 7 6 5 5 5 7 8 8 7 8 10 11 11 10 9 9 9 9 10 11 12 13 13 13 14 15 16 18 20 21 20 20 20 21 21 22 22 23 24 25 26 27 28 29 29 29 28 28 27 27 26 24 22 20 20 21 22 24 25 26 27 27 27
4 4 4 4 4 4 4 5 7 8 9 9 9 7 6 6 7 8 8 8 8 10 11 12 12 11 10 11 12 12 13 13 14 14 15 15 16 17 19 20 21 21 22 23 24 25 25 26 27 28 29 30 31 31 32 32 31 31 30 29 28 26 25 23 21 20 20 20 21 22 23 24 25 26
8 8 8 8 7 6 6 6 7 8 9 9 10 9 9 8 8 9 9 9 10 12 13 13 14 13 12 13 14 14 14 15 16 16 16 17 18 19 20 21 23 24 25 26 27 28 29 30 31 32 33 34 35 36 36 35 34 32 31 30 29 28 26 25 23 22 21 21 21 22 22 23 23 24
11 11 11 11 11 10 9 9 9 9 9 9 10 10 10 10 10 10 10 11 11 13 14 15 14 14 14 15 15 16 16 17 17 17 18 19 20 21 22 23 25 26 28 29 30 31 32 33 34 35 36 36 36 36 36 35 34 32 31 30 29 28 28 26 25 24 23 22 22 22 22 23 23 24
14 14 14 13 14 13 13 12 12 11 11 11 11 10 10 10 11 11 11 11 12 13 15 15 15 15 16 16 17 17 17 18 18 19 20 22 22 23 24 25 27 28 29 31 32 33 34 34 35 36 36 36 35 34 33 33 32 32 31 30 30 29 28 27 26 26 25 24 23 23 23 24 24 24
17 16 16 16 16 16 16 15 15 14 13 13 13 12 11 11 11 11 11 11 11 12 14 16 16 16 16 17 17 18 18 19 20 21 22 24 24 25 26 27 28 30 31 33 34 35 35 36 36 37 37 36 35 34 33 32 32 32 32 31 30 30 29 28 27 26 26 26 26 26 25 25 25 25
19 18 17 17 18 18 18 17 17 17 16 15 15 14 13 13 13 13 12 12 12 12 13 15 17 18 18 18 19 19 20 21 22 24 25 25 26 27 28 29 30 32 33 35 36 37 37 38 38 37 36 35 35 34 34 34 33 33 33 33 33 32 31 31 30 28 28 27 28 28 28 28 27 27
21 19 19 19 20 20 19 19 19 19 19 18 17 17 16 15 15 15 14 14 14 14 14 15 17 19 20 20 20 21 22 23 25 26 26 27 27 29 30 32 33 34 34 36 37 37 37 37 37 37 36 36 36 36 36 36 35 35 35 35 34 34 33 33 32 32 31 30 30 30 30 30 30 29
22 21 21 21 22 21 21 20 20 20 20 20 19 19 18 18 17 17 16 16 16 16 16 16 16 18 20 21 22 22 23 25 26 26 27 27 28 28 30 32 33 33 33 34 34 35 35 35 36 36 37 37 38 38 37 36 36 35 35 35 34 34 33 33 34 34 34 34 34 33 33 32 32 31
24 24 24 23 23 22 22 22 22 21 22 21 21 21 21 20 20 19 19 18 18 18 18 18 18 18 20 22 23 24 25 27 27 27 27 27 27 28 29 31 32 32 32 32 32 34 35 35 36 36 37 37 38 39 38 37 37 37 37 36 36 35 34 33 33 34 35 36 36 35 35 34 34 34
26 26 26 25 23 22 23 24 24 24 24 24 23 22 23 23 22 22 21 21 20 20 20 21 21 21 22 23 24 25 26 27 28 27 27 27 28 29 30 31 32 33 33 32 33 34 36 36 37 37 37 37 37 38 38 37 37 37 38 38 37 37 37 35 34 33 33 34 35 36 35 35 35 35
28 27 27 26 24 23 23 25 28 28 28 28 27 25 24 24 24 24 24 23 22 22 22 22 23 23 23 23 24 25 25 26 27 28 28 29 30 30 31 31 32 33 34 34 33 33 35 36 37 37 37 37 37 37 36 36 36 36 36 37 37 37 37 36 35 34 33 33 33 35 35 35 35 34
29 29 28 27 26 25 25 26 30 32 32 32 30 26 24 24 25 25 25 25 24 23 22 22 23 23 23 23 23 24 25 26 27 28 29 31 32 32 32 32 33 33 33 33 33 33 33 35 36 35 35 36 36 35 34 34 34 34 35 35 36 36 35 34 33 32 32 32 32 33 34 35 34 33
31 31 30 29 28 28 27 27 29 31 33 33 30 28 26 25 25 26 27 26 25 25 24 23 23 23 23 23 23 23 25 26 27 28 30 31 32 33 34 34 34 33 32 33 34 33 32 33 34 33 33 33 33 32 32 32 32 32 33 33 33 34 34 33 32 31 31 31 31 31 31 32 33 33
33 34 33 32 31 29 26 26 27 28 31 32 31 29 28 27 27 26 27 27 26 26 26 25 24 23 22 22 22 23 24 25 27 28 30 32 33 34 35 35 34 34 34 34 34 31 31 32 33 32 30 30 29 29 29 30 30 31 31 31 31 31 31 31 31 30 29 29 29 29 29 30 31 31
36 37 36 35 33 30 24 23 25 28 30 33 33 32 31 31 30 28 27 27 27 27 27 26 25 23 21 21 22 23 24 25 27 29 31 32 34 35 35 34 33 34 34 35 34 31 31 32 32 30 28 27 26 26 27 28 29 29 30 29 29 28 29 29 29 29 29 28 28 28 28 28 28 29
39 39 38 37 34 29 23 22 27 29 30 33 34 34 34 35 34 31 28 28 27 26 26 25 24 23 21 22 22 23 25 26 28 30 31 33 34 34 33 33 33 33 33 34 34 32 31 31 29 27 26 26 24 24 24 25 26 28 28 29 28 27 27 28 28 28 28 28 27 27 27 27 27 27
42 41 40 37 34 29 24 23 26 27 27 30 33 35 36 37 37 33 30 28 27 27 25 25 24 22 22 22 23 23 26 28 29 30 32 33 33 33 33 32 32 32 31 32 33 31 28 28 26 24 24 23 22 22 23 23 25 26 27 28 28 28 27 27 27 27 27 27 27 27 27 27 27 28
43 43 40 37 33 30 27 25 24 23 26 29 31 33 35 36 35 33 30 28 27 27 25 25 24 22 23 24 24 25 27 28 30 31 32 32 32 33 33 32 31 31 31 30 29 28 26 26 25 23 21 22 22 22 23 23 24 25 26 27 28 28 28 28 27 27 27 27 28 28 28 28 28 29
44 44 41 37 34 31 28 24 22 23 26 28 29 31 33 34 33 31 29 28 27 26 25 24 24 24 24 25 26 27 29 29 31 32 32 32 32 33 33 32 30 29 29 28 26 26 25 25 25 23 20 20 22 23 23 23 24 24 25 26 27 27 28 28 28 27 27 27 28 28 28 29 29 29
45 44 41 38 34 30 26 24 23 25 27 28 29 29 30 31 31 30 29 28 27 26 24 24 25 25 26 27 28 29 29 30 31 31 31 31 32 32 32 31 29 27 27 26 25 24 24 25 25 25 22 21 21 23 23 23 24 25 25 25 25 26 27 28 27 27 27 27 28 28 28 29 30 30
46 45 43 39 35 31 28 27 26 27 28 29 28 28 28 29 29 29 29 28 27 25 24 24 25 26 28 28 28 28 29 30 30 30 30 31 31 31 31 30 27 26 25 25 24 24 24 25 26 27 26 24 22 22 22 23 23 24 25 24 24 25 26 27 27 27 27 28 28 28 29 29 30 30
48 46 43 39 35 33 31 29 28 28 27 27 26 26 27 28 28 27 28 28 26 24 24 24 25 26 27 27 27 27 28 29 29 29 29 30 30 30 29 27 25 24 25 25 24 24 25 26 27 27 28 27 25 23 22 22 22 23 24 24 24 24 25 26 26 26 27 28 28 29 29 29 30 30
49 47 43 38 34 33 32 30 28 26 24 23 23 24 25 26 27 28 29 28 26 24 24 24 25 26 26 26 27 27 28 28 28 28 28 28 28 28 27 25 24 23 24 24 25 25 25 26 27 28 28 28 28 26 23 22 22 22 23 24 25 25 25 26 25 25 26 26 27 28 28 28 28 30
49 47 43 37 32 31 31 30 27 24 22 21 21 22 23 25 27 29 30 27 24 23 24 24 24 25 26 26 27 27 27 27 28 28 27 27 27 26 25 24 24 24 24 25 26 26 26 26 27 28 29 29 28 27 25 23 22 22 23 24 25 25 25 25 25 24 24 25 25 26 27 26 27 28
49 45 41 36 33 32 31 29 26 23 21 21 20 20 22 25 28 30 29 26 24 23 23 23 23 24 25 25 26 25 26 27 27 27 26 26 26 25 23 23 24 24 25 26 27 27 27 26 26 27 28 28 28 27 26 25 24 24 24 24 24 25 25 26 26 25 25 25 25 26 26 26 26 27
45 42 39 37 35 33 30 28 26 23 22 21 20 20 21 25 28 29 28 26 24 23 22 21 22 23 24 24 25 25 26 26 26 26 25 25 25 24 23 23 24 25 26 26 27 28 27 27 26 27 27 28 28 27 27 26 26 26 26 26 25 25 25 26 27 27 27 27 27 27 27 27 27 27
43 41 39 37 35 34 33 32 28 24 22 21 20 20 21 25 28 29 28 26 24 21 20 20 21 22 23 23 23 24 25 25 25 25 25 25 24 23 22 23 24 25 26 26 27 28 28 27 27 27 27 27 28 28 28 27 26 26 27 28 27 27 27 27 27 28 28 28 28 28 28 28 28 28
43 41 40 39 38 38 40 37 30 24 21 20 19 19 22 26 29 30 29 26 22 20 19 19 20 21 22 22 22 24 25 24 24 24 24 24 23 22 22 22 23 24 25 26 27 27 27 27 28 27 27 27 26 27 28 28 26 25 26 28 29 29 29 30 30 29 30 30 30 29 29 29 29 29
45 43 44 45 43 42 40 35 28 24 22 19 18 20 24 28 31 31 28 24 21 19 19 19 19 20 20 20 22 24 24 23 23 23 23 23 22 22 22 22 22 23 24 25 26 26 26 27 27 27 26 26 25 25 27 27 27 26 26 27 29 30 31 32 32 32 32 32 32 31 29 29 29 29
45 46 47 46 43 40 37 32 26 24 23 19 19 23 27 31 32 30 27 23 20 18 18 18 18 18 18 20 22 23 22 22 22 22 22 22 22 21 22 22 22 22 23 23 24 25 25 25 26 25 25 25 25 25 26 26 26 27 27 27 28 30 31 32 33 32 32 32 32 31 30 29 28 28
46 48 49 45 41 39 36 29 25 26 24 21 22 26 30 32 31 29 25 21 18 18 17 17 17 17 18 20 22 21 21 22 22 21 21 21 21 21 22 22 22 22 22 22 22 23 23 24 24 23 23 23 24 26 26 25 24 26 27 28 29 30 30 31 31 31 31 31 32 32 31 29 28 28
47 48 46 41 38 37 33 26 25 29 27 23 24 29 32 32 30 26 22 20 18 18 17 17 16 16 18 20 21 20 20 21 21 20 21 21 21 22 22 22 22 22 22 21 21 22 22 21 21 21 21 22 22 24 27 27 26 26 27 29 30 31 31 31 31 31 31 31 32 33 32 30 29 30
49 50 47 40 37 39 37 30 25 27 27 26 28 31 32 30 28 24 21 19 18 17 16 16 15 16 18 20 20 19 20 21 20 20 21 21 21 21 22 22 21 21 21 21 21 22 22 21 20 19 18 19 19 20 23 26 27 27 28 29 30 32 32 32 31 31 31 31 32 33 33 32 30 30
48 48 47 43 39 39 38 31 24 24 28 30 32 32 31 28 26 22 20 19 18 17 16 15 15 16 19 20 19 18 20 20 20 20 20 21 21 21 22 21 21 21 21 21 21 22 22 22 20 19 17 17 18 18 19 22 25 27 29 30 31 32 33 33 32 31 31 31 32 33 34 34 32 31
46 43 41 39 37 37 35 28 22 25 30 32 32 31 29 26 24 22 21 20 18 16 15 14 15 17 19 19 18 18 20 20 19 20 20 20 20 21 21 21 20 20 20 20 21 22 22 22 21 20 18 18 18 18 18 20 23 26 29 31 32 33 34 35 34 32 32 32 33 33 35 35 34 33
45 41 37 34 34 34 32 26 23 27 31 32 31 30 28 26 24 23 21 19 17 15 15 15 16 17 19 18 18 19 20 20 19 19 19 19 20 21 21 21 20 20 19 19 20 21 22 22 22 21 20 19 20 20 20 20 22 25 28 31 32 34 35 36 36 34 33 33 34 34 35 37 37 37
44 40 36 33 31 30 27 24 25 29 31 32 31 30 28 26 24 22 20 18 17 16 16 16 16 18 19 18 18 19 20 20 19 19 19 19 20 21 21 20 20 19 18 19 20 21 22 22 22 21 21 21 21 22 23 23 24 26 28 30 32 34 35 36 37 37 36 35 35 36 36 38 39 40
42 36 33 32 30 28 26 24 26 30 32 32 31 29 27 25 24 22 19 18 17 17 16 16 17 19 19 18 18 19 20 20 19 19 19 19 21 21 21 20 20 18 17 18 19 20 21 22 22 21 21 21 22 23 24 25 26 27 29 31 32 33 34 35 36 37 37 37 38 38 40 41 42 43
39 35 33 30 28 27 26 27 29 32 33 32 30 29 27 25 23 21 20 19 18 17 17 17 18 20 20 18 18 20 21 20 19 19 19 20 21 21 21 20 19 18 17 17 18 19 20 21 22 21 21 22 22 23 24 26 28 29 30 31 33 34 34 33 33 34 36 37 39 40 42 43 44 45
36 35 33 29 27 27 29 31 32 33 32 31 30 29 27 25 23 22 20 19 18 18 18 19 20 21 20 19 19 20 21 21 20 19 20 20 21 21 21 20 19 18 17 17 17 18 19 20 21 21 22 22 23 24 24 26 28 30 30 30 32 34 35 34 32 31 32 35 37 39 41 43 44 46
31 29 26 25 27 29 30 32 33 32 31 30 29 27 26 24 23 22 21 19 19 19 19 20 22 22 20 19 20 21 22 21 21 20 20 20 20 21 21 20 19 18 18 17 17 17 18 20 21 21 22 22 23 24 25 26 28 30 31 31 32 33 34 35 33 31 31 32 35 37 39 41 44 47
26 25 25 25 28 30 31 31 31 30 29 28 28 26 25 24 23 22 21 20 20 20 21 22 22 22 20 20 21 22 22 22 22 21 20 20 20 21 21 20 19 18 18 17 17 17 18 20 21 21 21 22 23 24 25 27 28 30 31 31 32 33 34 35 34 32 31 31 33 35 36 38 41 46
25 26 26 25 26 27 28 28 27 27 28 28 27 26 25 24 23 22 21 21 21 21 22 22 22 21 21 21 21 22 23 23 22 20 20 20 20 20 20 19 18 18 18 17 17 17 18 19 20 21 21 22 23 24 25 27 28 30 30 31 32 33 35 35 34 33 31 31 33 35 36 37 40 44
Wind_Direction
27 26 21 18 19 15 8 360 349 341 336 330 322 304 286 277 277 280 285 296 299 294 291 287 280 271 264 263 265 266 269 272 277 282 282 279 279 284 291 298 304 307 307 307 309 310 312 312 311 310 310 310 310 311 312 314 315 316 317 317 317 315 311 306 301 297 294 291 289 287 284 281 278 276
336 359 7 9 9 2 358 353 344 335 329 325 321 312 298 281 273 271 270 275 281 284 287 287 284 277 270 270 270 270 272 273 277 283 287 288 290 291 294 297 299 299 298 298 299 301 303 303 303 302 302 303 304 305 308 309 311 313 314 315 315 314 311 305 298 293 289 287 285 285 284 284 283 282
280 293 318 338 348 346 338 335 335 332 326 322 320 316 310 300 287 279 273 269 270 274 278 280 281 280 278 277 277 277 279 282 284 287 289 290 291 291 292 293 293 293 292 293 295 296 298 299 300 301 301 302 303 304 305 307 309 310 311 312 311 310 309 305 299 291 284 281 278 277 277 277 278 279
273 280 292 308 320 326 324 320 321 322 320 318 317 314 312 308 301 294 286 277 272 271 273 276 280 282 280 279 281 283 286 287 288 290 290 290 290 291 292 292 292 292 293 294 296 297 299 300 301 303 304 305 306 306 306 307 307 308 308 308 307 307 306 304 301 295 287 281 275 272 270 268 268 268
266 273 281 292 301 308 310 308 308 307 307 308 309 309 308 306 302 300 296 287 278 273 273 277 280 281 281 281 283 285 287 288 290 290 290 288 288 290 292 293 293 293 295 296 297 298 299 301 302 304 306 307 308 308 307 307 307 306 306 305 305 305 305 303 302 298 293 286 280 274 270 266 264 262
261 266 274 283 291 298 301 300 298 297 297 298 298 299 300 299 296 295 296 292 284 277 276 279 280 279 279 281 282 284 286 287 288 287 285 285 286 289 291 291 291 292 294 295 296 297 299 300 302 305 307 308 308 308 307 307 306 305 304 303 302 303 302 301 299 297 295 291 285 280 275 271 268 266
257 261 268 277 286 292 296 296 293 291 291 291 292 290 288 289 290 289 290 291 287 281 278 278 278 278 278 278 279 280 281 282 282 281 280 282 286 289 291 290 290 292 294 296 297 298 299 300 302 305 307 308 308 307 306 305 304 303 302 301 300 299 298 297 295 293 292 290 288 284 280 278 275 273
255 258 264 272 280 286 292 295 292 289 287 287 288 287 283 282 285 287 289 290 288 284 277 273 272 274 275 276 276 275 275 276 277 277 279 283 289 292 292 291 292 294 296 298 298 299 300 302 304 305 307 307 307 307 306 306 305 304 302 301 300 299 297 294 292 290 288 286 285 284 282 279 277 275
254 257 262 269 275 281 287 292 291 287 285 285 287 287 282 279 281 286 289 290 290 288 282 275 271 270 271 272 272 272 273 274 276 278 283 288 293 295 294 294 295 296 297 299 300 301 302 304 305 306 307 307 307 307 306 305 304 303 302 300 298 297 295 293 290 288 286 284 283 282 281 280 279 277
254 258 262 267 272 277 283 290 291 288 285 286 287 287 284 279 279 283 287 289 290 290 286 281 275 270 268 268 270 271 272 273 275 279 285 289 292 292 293 293 295 297 299 301 302 303 304 305 306 306 307 307 307 306 305 305 304 302 300 298 296 294 292 290 288 286 285 283 282 281 280 280 279 277
253 258 263 266 271 277 283 289 292 291 290 290 289 289 288 284 280 279 281 285 287 288 287 284 280 275 270 268 268 269 270 271 274 278 282 285 287 289 290 290 293 297 300 302 304 305 306 306 307 307 307 308 307 306 306 306 304 302 300 299 297 294 291 288 286 284 283 282 282 280 279 278 277 275
254 258 263 267 272 278 285 289 290 291 293 293 291 290 291 288 281 276 276 280 283 284 286 287 285 282 276 272 269 269 271 274 277 280 282 285 287 290 292 294 296 299 302 304 306 307 307 307 307 307 308 308 306 305 304 304 303 301 300 298 296 294 293 290 287 285 283 281 281 281 279 277 275 274
254 258 263 267 271 277 285 293 294 294 295 294 291 289 289 287 281 274 272 276 280 282 284 287 288 286 283 278 274 275 277 279 282 285 288 290 292 293 296 298 300 301 303 304 305 306 307 307 306 307 307 306 304 303 302 301 299 298 296 295 293 292 291 290 289 287 284 281 279 279 279 278 276 274
254 258 262 265 269 275 283 294 299 297 297 296 292 287 286 286 282 274 270 273 278 281 283 286 287 286 284 280 277 278 280 282 286 290 291 292 294 297 299 300 301 302 303 304 304 306 307 306 304 305 305 304 302 302 300 299 297 295 294 293 293 292 291 291 289 287 285 282 279 277 277 277 277 276
255 258 260 262 268 274 281 293 299 297 297 297 293 289 287 285 282 275 270 271 276 280 282 284 285 284 282 279 277 278 281 285 290 291 292 293 296 298 300 302 303 304 306 306 305 307 308 305 303 304 304 303 302 302 300 298 296 295 294 294 294 294 294 294 292 289 286 283 281 279 277 277 277 277
255 257 260 262 267 272 280 292 298 296 295 295 293 290 288 286 283 277 270 270 275 278 281 282 284 283 280 278 278 280 284 289 291 291 292 294 297 299 301 303 306 307 309 308 307 310 311 307 305 306 305 304 303 302 300 298 297 296 295 295 295 295 295 294 292 291 288 285 282 280 278 276 276 277
253 257 260 263 267 271 277 290 296 292 290 290 290 290 289 287 286 281 272 270 273 276 279 282 283 282 277 276 279 284 288 290 290 291 293 294 297 299 302 305 308 309 310 309 309 313 313 309 308 309 307 306 305 302 300 298 298 297 297 297 296 295 293 291 290 290 289 287 285 283 281 279 277 276
252 255 259 263 268 269 272 285 291 286 284 286 287 289 289 287 286 283 276 272 273 276 279 281 282 279 277 278 281 286 289 289 289 291 293 295 297 300 303 306 309 310 310 309 311 314 314 310 309 309 307 306 305 302 300 298 298 298 299 298 297 295 292 290 289 288 288 288 288 287 286 284 282 279
251 255 259 262 266 266 267 279 285 280 278 281 283 285 286 286 285 282 276 273 272 274 277 278 278 278 278 280 283 285 286 287 290 292 294 296 299 302 305 307 309 310 310 310 311 314 314 311 310 311 310 309 308 305 303 302 300 300 299 299 298 296 294 292 290 290 290 290 289 288 286 285 283 281
251 256 258 259 262 265 267 274 277 271 270 275 279 283 286 286 283 280 275 271 270 271 274 275 275 276 278 279 280 282 285 288 291 293 296 299 302 303 306 308 311 311 310 310 312 314 315 313 313 314 315 314 313 310 308 306 303 300 299 298 297 296 295 294 293 293 293 292 291 289 287 286 284 282
251 255 256 256 260 264 264 265 265 263 267 274 280 285 286 284 281 278 274 271 269 270 271 272 272 273 274 275 277 280 284 288 291 295 298 301 303 305 307 309 312 312 311 312 315 317 317 316 316 317 320 320 318 316 313 310 305 301 298 296 296 296 295 295 295 294 293 292 290 289 288 287 285 283
250 253 253 254 259 260 255 251 253 258 267 275 281 284 284 281 278 275 272 270 268 267 268 268 268 269 270 273 276 279 283 287 291 296 300 302 303 306 308 310 312 313 312 313 317 319 320 319 319 320 324 327 326 321 316 312 307 302 299 296 295 294 293 293 294 293 292 290 289 288 287 285 284 283
249 250 251 252 255 253 246 243 246 254 264 272 276 278 278 276 274 272 270 267 264 262 262 264 266 268 270 272 276 280 283 287 292 297 300 302 304 306 308 310 313 314 313 314 318 320 321 321 322 323 326 329 329 324 318 312 306 301 299 297 294 292 291 291 291 291 291 290 289 288 287 286 285 284
249 250 251 250 250 248 244 240 243 253 263 269 272 272 272 271 271 267 263 260 258 256 258 261 264 267 270 274 277 281 284 289 294 297 300 302 305 306 308 310 313 314 314 316 319 322 323 324 324 325 326 327 327 326 320 313 306 301 299 296 294 293 292 291 292 292 292 291 290 289 288 288 288 288
249 251 250 247 246 244 241 239 244 254 264 269 271 270 268 266 263 259 256 254 252 251 254 259 264 267 271 275 278 281 286 292 295 298 301 304 305 306 308 311 313 316 316 318 320 323 325 326 325 324 324 324 325 324 321 314 306 302 300 298 297 296 295 295 295 295 293 292 291 290 290 290 291 291
248 249 248 245 242 238 236 239 246 254 262 269 272 269 263 260 256 254 254 251 247 247 252 258 263 267 271 274 278 283 288 293 296 298 302 304 305 306 309 312 315 317 318 319 321 323 325 325 324 323 323 323 323 322 320 316 310 306 304 303 303 303 303 302 302 301 299 297 295 293 292 292 291 291
247 246 245 242 238 232 232 238 243 250 260 269 271 264 258 255 253 252 251 246 242 245 251 257 262 267 271 275 279 284 289 293 296 299 303 305 305 307 310 313 315 317 318 319 321 323 324 324 324 323 323 322 322 321 320 318 315 312 311 310 311 311 311 310 309 307 305 302 299 297 296 295 294 293
243 241 239 238 234 231 234 241 242 245 257 264 262 257 255 252 251 250 246 241 241 246 252 257 262 267 271 275 279 285 289 292 296 300 303 305 305 308 312 314 315 315 317 319 320 321 323 324 324 324 324 323 322 321 319 318 317 317 316 316 317 317 315 312 311 309 307 304 302 301 301 300 298 296
238 235 233 231 229 230 240 248 245 243 252 257 253 252 251 249 247 244 241 239 242 248 253 257 261 266 270 275 280 285 289 292 296 300 302 303 304 308 311 312 312 313 315 317 318 320 322 323 324 325 325 324 323 320 318 318 319 320 319 319 320 319 317 315 313 311 309 307 306 305 305 303 301 300
233 230 227 226 228 233 242 247 244 243 247 249 250 252 249 244 241 238 237 239 243 248 251 255 260 265 270 276 281 285 287 291 295 298 300 302 304 307 308 308 309 311 313 315 317 318 321 322 324 325 325 323 321 318 317 318 321 322 322 321 321 321 320 318 317 316 314 312 311 310 309 307 305 303
227 225 224 226 230 234 237 236 235 236 237 241 254 259 247 238 235 233 234 238 243 246 250 255 260 265 271 278 281 283 286 290 294 296 298 300 301 303 303 304 306 309 311 313 314 316 319 320 322 323 322 320 319 317 316 319 321 323 324 324 324 324 323 321 320 319 317 315 313 312 310 309 307 305
221 220 222 226 229 231 231 230 231 231 231 242 260 257 241 232 229 229 232 237 242 246 251 256 261 267 273 279 281 282 286 289 291 293 296 298 298 299 300 301 304 306 308 310 311 314 317 319 320 320 319 317 316 315 316 319 322 323 326 327 327 326 325 322 320 319 317 314 312 311 311 310 309 308
215 214 218 224 227 229 231 234 233 228 230 248 259 246 233 229 227 227 232 238 241 246 252 257 263 269 275 279 280 282 285 287 288 292 295 295 295 296 297 299 302 305 307 308 308 311 315 317 318 317 316 314 314 313 314 317 321 324 326 328 328 327 325 322 320 318 317 314 313 313 313 314 315 313
217 217 218 218 222 228 235 239 236 231 232 243 245 234 226 226 226 227 232 237 239 246 253 258 264 272 277 278 279 283 286 286 288 292 293 292 293 294 295 297 300 304 306 307 308 310 313 315 315 314 312 311 312 312 314 317 322 325 327 327 326 326 325 324 322 320 319 317 316 316 317 318 319 317
225 226 226 225 228 234 238 240 239 236 234 234 230 224 221 223 225 228 232 236 241 248 253 259 267 274 278 278 280 284 285 284 286 290 290 290 291 292 292 294 298 303 305 307 309 311 314 314 313 310 308 306 307 309 312 315 319 322 323 324 324 324 325 325 323 322 321 320 318 318 318 320 320 317
225 228 230 233 234 236 236 235 234 232 230 225 221 219 220 223 227 230 233 237 243 248 252 260 269 274 276 277 280 282 281 280 284 286 286 288 289 289 289 292 297 302 304 306 309 311 313 312 311 308 306 303 303 305 308 312 315 318 320 322 324 325 325 326 326 325 323 321 320 319 320 320 320 319
223 227 229 230 229 229 230 231 229 225 222 218 217 217 220 224 228 231 234 239 244 248 254 262 269 272 274 276 278 278 277 277 281 283 284 286 287 286 287 291 296 300 302 305 308 310 310 309 308 308 308 306 305 306 309 312 315 316 318 321 324 326 327 327 327 327 325 323 322 321 321 321 322 322
223 225 224 221 220 223 225 225 222 218 215 214 215 218 221 224 227 231 236 241 245 250 256 263 268 271 272 274 276 275 273 274 278 280 282 284 284 283 285 290 294 298 302 305 307 307 306 305 306 308 309 308 307 309 312 315 317 317 318 321 325 327 328 328 328 328 326 324 323 323 323 323 324 325
224 225 221 217 217 219 219 217 215 213 212 213 216 219 222 225 230 234 239 243 247 252 258 265 269 271 272 274 275 273 271 272 276 279 281 282 280 280 282 287 291 295 300 303 304 302 301 302 305 308 309 309 310 313 316 319 320 320 321 323 326 328 329 329 328 327 326 325 324 325 325 325 326 327
218 217 215 216 217 215 212 211 210 210 211 213 216 219 223 227 232 237 241 245 249 254 261 266 270 271 272 275 276 273 270 271 275 278 280 279 277 277 281 285 289 292 296 299 298 297 297 300 305 308 308 309 311 314 317 319 320 322 325 326 327 328 329 329 327 326 326 326 326 327 328 329 329 330
213 213 214 218 219 212 207 207 208 208 209 211 214 219 224 229 233 239 243 247 252 257 263 268 271 272 273 276 276 273 270 270 272 275 276 275 274 276 280 284 286 289 292 294 294 293 295 299 304 307 308 309 311 313 316 319 321 324 327 328 327 328 329 329 328 326 325 326 327 329 330 330 330 331
213 217 218 219 215 208 205 206 208 207 207 210 215 221 226 231 236 241 245 250 254 259 265 269 271 272 274 276 275 271 268 267 269 271 271 272 274 276 279 282 284 287 290 291 292 292 295 299 303 307 308 309 310 313 317 320 322 324 326 327 327 328 328 329 330 329 327 327 328 329 329 329 330 332
216 217 215 211 207 205 204 204 205 206 208 212 217 224 229 234 240 245 249 253 257 261 266 270 272 272 274 275 273 269 265 263 264 267 269 271 273 275 278 281 284 286 289 291 292 294 296 299 303 306 309 310 311 313 317 320 321 323 325 326 328 329 329 330 331 332 330 328 328 328 329 330 332 334
223 216 208 202 200 200 199 199 201 204 209 214 221 227 232 237 243 247 251 255 259 264 269 271 271 271 273 273 271 266 261 260 262 265 268 269 270 273 277 281 284 286 288 291 293 295 297 300 303 306 308 309 311 314 317 319 321 323 325 326 328 330 332 332 332 332 332 331 330 331 332 333 334 336
215 205 200 199 197 196 197 199 201 206 211 217 223 229 234 240 245 249 253 257 263 268 271 271 270 271 271 270 266 261 258 258 261 264 266 267 269 271 276 280 284 287 289 292 294 295 296 299 302 305 308 309 311 314 317 319 321 323 324 326 329 331 332 332 332 333 334 334 333 334 335 336 337 338